[[{"header":{"parameterUnit":"m.s-1","parameterCategory":1,"la1":30.2991,"la2":30.254,"lo1":-89.0895,"lo2":-89.0444,"dy":0.0017,"dx":0.0017,"nx":28,"ny":28,"refTime":"2023-11-14T03:00:00:Z","depth":0,"parameterNumber":2,"parameterNumberName":"U-component_of_WINDS"},"data":[0,0,0,0,0,0,0,0,0,0,0,0,0,0,0,0,0,0,0,0,0,0,0,0,0,0,0,0,0,0,0,0,0,0,0,0,0,0,0,0,0,0,0,0,0,0,0,0,0,0,0,0,0,0,0,0,0,0,-4.7646,-4.7649,0,-4.7884,-4.7886,-4.7889,-4.7838,-4.7834,-4.7829,-4.7825,-4.8077,-4.8088,-4.8098,0,0,0,0,0,0,0,0,0,0,0,0,0,-4.7158,-4.7168,-4.7646,-4.7649,-4.7652,-4.7883,-4.7887,-4.789,-4.7839,-4.7833,-4.7828,-4.7823,-4.8074,-4.8086,-4.8099,0,0,0,0,0,0,0,0,0,0,0,0,0,-4.7381,-4.7171,-4.7646,-4.7654,-4.7657,-4.7883,-4.7887,-4.7891,-4.784,-4.7833,-4.7827,-4.782,-4.8069,-4.8085,-4.8101,-4.8335,0,0,-4.8151,-4.8158,0,0,0,0,0,0,0,0,-4.7368,-4.7399,-4.765,-4.7654,-4.7658,-4.7824,-4.7807,-4.804,-4.7842,-4.7771,-4.7825,-4.7817,-4.7999,-4.8021,-4.808,-4.8347,-4.8358,-4.8152,-4.8162,-4.8169,-4.8174,0,0,0,0,0,0,0,-4.7353,-4.7388,-4.774,-4.7654,-4.7659,-4.765,-4.7674,-4.7851,-4.792,-4.7777,-4.7773,-4.7802,-4.8,-4.8064,-4.8086,-4.8362,-4.8152,-4.8166,-4.8176,-4.8183,-4.8838,-4.8845,0,0,0,0,0,0,-4.7333,-4.7376,-4.7733,-4.7747,-4.7493,-4.7664,-4.7691,-4.7778,-4.7918,-4.7932,-4.7807,-4.7798,-4.804,-4.8067,-4.8094,-4.8381,-4.8169,-4.8184,-4.8194,-4.8831,-4.884,-4.8848,0,0,0,0,0,0,-4.7322,-4.7365,-4.7723,-4.7561,-4.7606,-4.7679,-4.7777,-4.7786,-4.785,-4.7941,-4.7954,-4.786,-4.8036,-4.8071,-4.8276,-4.8389,-4.8192,-4.8207,-4.8822,-4.8833,-4.8844,-4.8955,0,0,0,0,0,0,-4.7309,-4.7362,-4.7449,-4.7563,-4.7614,-4.7898,-4.7784,-4.7795,-4.7878,-4.7868,-4.7994,-4.8008,-4.8033,-4.8252,-4.8292,-4.8408,-4.8219,-4.8812,-4.8827,-4.884,-4.8941,-4.8968,-4.8992,0,0,0,0,0,-4.7291,-4.7471,-4.7453,-4.7497,-4.7725,-4.7905,-4.7935,-4.7957,-4.7887,-4.7977,-4.8036,-4.8004,-4.837,-4.8274,-4.8318,-4.8441,-4.8805,-4.8823,-4.8839,-4.893,-4.8963,-4.8991,0,0,0,0,0,0,-4.737,-4.7486,-4.7468,-4.7689,-4.7787,-4.7896,-4.801,-4.7991,-4.8113,-4.81,-4.8126,-4.8155,-4.8364,-4.8423,-4.8313,-4.8677,-4.8578,-4.8605,-4.8631,-4.8664,-4.8688,-4.8671,-4.8233,0,0,0,0,0,-4.7413,-4.7547,-4.7642,-4.7829,-4.7878,-4.7936,-4.8015,-4.8024,-4.8128,-4.817,-4.8243,-4.8348,-4.8487,-4.8578,-4.871,-4.8949,-4.8978,-4.9055,-4.908,-4.9101,-4.9125,-4.926,-4.9297,-4.8905,-4.8904,-4.8904,0,0,-4.7504,-4.7584,-4.7667,-4.7847,-4.7923,-4.8065,-4.7971,-4.8124,-4.8231,-4.8194,-4.8392,-4.845,-4.8569,-4.8793,-4.8895,-4.8848,-4.9239,-4.9123,-4.9138,-4.9151,-4.9281,-4.9319,-4.9352,-4.8916,-4.8914,-4.8912,0,0,-4.7742,-4.7814,-4.7979,-4.8058,-4.8175,-4.8213,-4.8252,-4.8365,-4.8401,-4.8599,-4.8576,-4.8705,-4.8942,-4.9029,-4.9105,-4.9379,-4.9357,-4.9422,-4.9554,-4.9686,-4.9717,-4.9744,-4.9846,-4.9882,-4.9445,-4.9445,-4.9445,0,-4.784,-4.8049,-4.8067,-4.8223,-4.8305,-4.8276,-4.8446,-4.8523,-4.8679,-4.8738,-4.8682,-4.8982,-4.9059,-4.9305,-4.9372,-4.9433,-4.9483,-4.9408,-4.971,-4.9738,-4.9764,-4.9862,-4.99,-4.9452,-4.9451,-4.9451,-4.945,0,-4.8167,-4.8313,-4.8433,-4.8582,-4.8678,-4.884,-4.8885,-4.898,-4.8982,-4.9027,-4.9232,-4.9324,-4.9477,-4.9535,-4.9539,-4.9784,-4.9752,-4.9703,-4.9604,-4.9809,-4.9901,-4.9938,-4.9463,-4.946,-4.9458,-4.9456,0,0,-4.8462,-4.8619,-4.8663,-4.8733,-4.8861,-4.8976,-4.9139,-4.9286,-4.9369,-4.9478,-4.9619,-4.9821,-4.9778,-4.9864,-4.9877,-4.9992,-5.0209,-4.993,-4.9933,-4.9982,-5.049,-5.0528,-5.057,-5.0193,-5.02,-5.0206,-5.0481,0,-4.8714,-4.8998,-4.902,-4.9278,-4.9416,-4.9392,-4.9534,-4.9631,-4.9678,-4.9805,-4.9857,-5.0002,-4.9931,-4.9984,-5.0096,-5.0158,-5.0312,-5.0138,-5.0329,-5.0336,-5.0303,-5.0618,-5.0658,-5.0913,-5.0517,-5.0523,-5.0527,0,-4.9046,-4.9164,-4.9435,-4.9547,-4.9606,-4.9733,-4.9872,-4.9991,-5.0103,-5.0129,-5.0226,-5.0224,-5.0397,-5.029,-5.0531,-5.0412,-5.0492,-5.0535,-5.0545,-5.0567,-5.0446,-5.0652,-5.0994,-5.1034,-5.0584,-5.0579,-5.0575,0,-4.9238,-4.9465,-4.9657,-4.9717,-4.9851,-4.9942,-5.0003,-5.0107,-5.0195,-5.0318,-5.0376,-5.0517,-5.0596,-5.0708,-5.0747,-5.0664,-5.0988,-5.0883,-5.1019,-5.1018,-5.109,-5.1086,-5.1454,-5.1136,-5.1135,-5.1135,-5.1134,0,-4.9519,-4.9687,-4.9746,-4.9865,-5.0054,-5.0079,-5.0266,-5.0323,-5.0416,-5.0549,-5.0537,-5.0663,-5.0704,-5.0839,-5.087,-5.1068,-5.1102,-5.1132,-5.1139,-5.1135,-5.1132,-5.119,-5.1175,-5.1145,-5.1143,-5.1141,-5.1139,0,-4.9767,-4.9812,-5.0021,-5.0131,-5.0163,-5.0298,-5.0395,-5.0512,-5.0556,-5.0725,-5.0766,-5.0838,-5.0996,-5.1045,-5.1235,-5.1257,-5.1489,-5.1479,-5.1451,-5.1453,-5.1588,-5.1576,-5.2009,-5.2069,-5.1708,-5.1711,-5.1714,0,-4.9944,-5.0073,-5.0197,-5.0284,-5.0348,-5.0488,-5.0578,-5.0609,-5.0704,-5.0842,-5.0944,-5.1098,-5.1224,-5.1479,-5.1551,-5.1698,-5.1693,-5.1835,-5.1716,-5.1709,-5.1701,-5.1694,-5.1709,-5.1858,-5.1862,-5.1865,-5.1868,0,-5.0257,-5.0273,-5.0401,-5.0539,-5.0646,-5.0757,-5.0863,-5.0936,-5.0983,-5.1091,-5.1251,-5.1349,-5.1543,-5.17,-5.185,-5.1917,-5.1904,-5.1904,-5.1944,-5.1943,-5.1923,-5.194,-5.1516,-5.1895,-5.1892,-5.189,-5.1889,-5.1888,-5.0477,-5.0592,-5.0698,-5.0843,-5.0926,-5.1027,-5.1143,-5.1202,-5.1335,-5.1494,-5.1505,-5.1679,-5.1792,-5.1991,-5.2066,-5.2206,-5.2166,-5.2223,-5.2238,-5.2253,-5.2265,-5.1898,-5.2233,-5.2233,-5.2232,-5.2232,-5.2231,0,-5.0792,-5.0859,-5.0992,-5.1141,-5.1256,-5.1229,-5.1346,-5.1446,-5.1598,-5.1703,-5.1827,-5.2014,-5.2166,-5.225,-5.2404,-5.25,-5.2498,-5.254,-5.2535,-5.2552,-5.2291,-5.2242,-5.2539,-5.2539,-5.2539,-5.2539,-5.2539,-5.2539,-5.0969,-5.1163,-5.1193,-5.143,-5.1497,-5.1665,-5.1736,-5.183,-5.1914,-5.2122,-5.2247,-5.23,-5.2399,-5.256,-5.27,-5.2721,-5.2781,-5.2828,-5.2845,-5.2601,-5.2569,-5.2539,-5.2494,-5.2839,-5.284,-5.3095,-5.3098,-5.3099]},{"header":{"parameterUnit":"m.s-1","parameterCategory":1,"la1":30.2991,"la2":30.254,"lo1":-89.0895,"lo2":-89.0444,"dy":0.0017,"dx":0.0017,"nx":28,"ny":28,"refTime":"2023-11-14T03:00:00:Z","depth":0,"parameterNumber":3,"parameterNumberName":"V-component_of_WINDS"},"data":[0,0,0,0,0,0,0,0,0,0,0,0,0,0,0,0,0,0,0,0,0,0,0,0,0,0,0,0,0,0,0,0,0,0,0,0,0,0,0,0,0,0,0,0,0,0,0,0,0,0,0,0,0,0,0,0,0,0,-4.1264,-4.1261,0,-4.1045,-4.1043,-4.104,-4.0883,-4.0882,-4.088,-4.0879,-4.0646,-4.0641,-4.0636,0,0,0,0,0,0,0,0,0,0,0,0,0,-4.1533,-4.1529,-4.1264,-4.1261,-4.1258,-4.1045,-4.1042,-4.1039,-4.0883,-4.0882,-4.088,-4.0879,-4.0648,-4.0642,-4.0636,0,0,0,0,0,0,0,0,0,0,0,0,0,-4.1376,-4.1528,-4.1264,-4.1155,-4.1143,-4.1046,-4.1042,-4.1039,-4.0884,-4.0882,-4.088,-4.0878,-4.065,-4.0643,-4.0635,-4.0627,0,0,-4.0612,-4.0609,0,0,0,0,0,0,0,0,-4.1385,-4.1366,-4.1174,-4.1162,-4.1149,-4.099,-4.1052,-4.09,-4.0884,-4.0982,-4.0879,-4.0877,-4.0761,-4.0745,-4.0707,-4.0616,-4.0606,-4.0611,-4.0607,-4.0604,-4.0601,0,0,0,0,0,0,0,-4.1396,-4.1374,-4.1177,-4.1171,-4.1156,-4.1113,-4.1088,-4.1022,-4.0884,-4.0973,-4.0961,-4.0938,-4.0754,-4.0715,-4.0701,-4.0602,-4.0612,-4.0605,-4.06,-4.0597,-4.0485,-4.0487,0,0,0,0,0,0,-4.1426,-4.1385,-4.1184,-4.117,-4.1265,-4.1109,-4.1082,-4.1042,-4.0885,-4.0859,-4.094,-4.0931,-4.0729,-4.071,-4.0692,-4.0667,-4.0604,-4.0597,-4.0592,-4.0484,-4.0485,-4.0487,0,0,0,0,0,0,-4.1432,-4.1409,-4.1193,-4.1274,-4.1243,-4.1107,-4.1064,-4.1039,-4.1,-4.086,-4.0833,-4.0926,-4.0727,-4.0703,-4.0643,-4.0657,-4.0593,-4.0586,-4.0482,-4.0484,-4.0486,-4.0621,0,0,0,0,0,0,-4.144,-4.1413,-4.1411,-4.1275,-4.124,-4.1152,-4.1065,-4.1036,-4.0989,-4.0976,-4.084,-4.0816,-4.0723,-4.0655,-4.0636,-4.0646,-4.058,-4.048,-4.0483,-4.0486,-4.0615,-4.0628,-4.0639,0,0,0,0,0,-4.1451,-4.1457,-4.1412,-4.1389,-4.1236,-4.1153,-4.1132,-4.1029,-4.0991,-4.0985,-4.0894,-4.082,-4.0659,-4.0651,-4.0627,-4.0635,-4.0478,-4.0482,-4.0485,-4.0609,-4.0625,-4.0639,0,0,0,0,0,0,-4.1596,-4.1437,-4.1386,-4.1349,-4.1266,-4.1127,-4.1118,-4.1049,-4.0973,-4.0964,-4.0835,-4.0806,-4.0758,-4.069,-4.0684,-4.0615,-4.0559,-4.0558,-4.0661,-4.0675,-4.0687,-4.0703,-4.0574,0,0,0,0,0,-4.1624,-4.1574,-4.1437,-4.1417,-4.1379,-4.1256,-4.1216,-4.1143,-4.105,-4.1014,-4.0918,-4.0829,-4.0756,-4.0712,-4.0639,-4.0604,-4.0569,-4.0598,-4.061,-4.062,-4.062,-4.0591,-4.06,-4.0499,-4.0498,-4.0498,0,0,-4.1681,-4.1588,-4.1564,-4.1444,-4.1371,-4.1317,-4.1227,-4.1176,-4.1133,-4.1005,-4.0943,-4.087,-4.076,-4.0712,-4.0685,-4.0653,-4.064,-4.0625,-4.0634,-4.0628,-4.0595,-4.0605,-4.0614,-4.0501,-4.05,-4.05,0,0,-4.1757,-4.1684,-4.1658,-4.1586,-4.1477,-4.1395,-4.1389,-4.1259,-4.1206,-4.1142,-4.1043,-4.0989,-4.087,-4.0794,-4.0741,-4.0784,-4.071,-4.0763,-4.0825,-4.0798,-4.0806,-4.0812,-4.0823,-4.0829,-4.0764,-4.0764,-4.0764,0,-4.184,-4.176,-4.1652,-4.1605,-4.1553,-4.1437,-4.1406,-4.134,-4.1212,-4.1177,-4.1144,-4.0989,-4.0907,-4.0837,-4.0847,-4.0809,-4.0793,-4.0777,-4.0814,-4.082,-4.0824,-4.0832,-4.0838,-4.0771,-4.077,-4.0769,-4.0769,0,-4.1865,-4.181,-4.1801,-4.1683,-4.1629,-4.1591,-4.1473,-4.1431,-4.1362,-4.1282,-4.1215,-4.1112,-4.1014,-4.0992,-4.0924,-4.091,-4.0893,-4.084,-4.078,-4.0842,-4.0848,-4.0851,-4.0781,-4.0778,-4.0776,-4.0775,0,0,-4.2027,-4.1848,-4.1846,-4.1789,-4.1658,-4.1611,-4.1565,-4.1471,-4.1436,-4.135,-4.1304,-4.1205,-4.1153,-4.1091,-4.1013,-4.099,-4.1024,-4.0937,-4.0932,-4.0953,-4.0997,-4.1036,-4.1043,-4.0975,-4.0975,-4.0976,-4.1004,0,-4.208,-4.1996,-4.1895,-4.1843,-4.1787,-4.1674,-4.1632,-4.1545,-4.1468,-4.1406,-4.1318,-4.1248,-4.1187,-4.1149,-4.1121,-4.1027,-4.103,-4.1023,-4.0926,-4.0924,-4.0956,-4.1046,-4.1089,-4.1121,-4.1006,-4.1007,-4.1007,0,-4.2132,-4.2053,-4.1996,-4.1867,-4.1839,-4.1805,-4.1708,-4.1652,-4.1549,-4.1493,-4.1424,-4.134,-4.1279,-4.1229,-4.114,-4.1138,-4.1091,-4.1039,-4.1037,-4.1022,-4.0968,-4.103,-4.113,-4.1134,-4.101,-4.101,-4.101,0,-4.2251,-4.2131,-4.208,-4.2034,-4.1883,-4.1861,-4.1796,-4.1691,-4.1639,-4.1553,-4.1517,-4.1425,-4.1374,-4.1302,-4.1192,-4.1166,-4.1114,-4.1055,-4.1062,-4.1064,-4.1054,-4.1056,-4.1145,-4.1031,-4.1031,-4.1031,-4.103,0,-4.2319,-4.2288,-4.2131,-4.21,-4.2058,-4.1941,-4.1902,-4.1826,-4.1733,-4.1681,-4.1576,-4.1528,-4.1388,-4.1322,-4.1236,-4.1173,-4.1151,-4.1101,-4.1078,-4.1109,-4.1115,-4.1075,-4.1069,-4.1032,-4.1031,-4.1031,-4.1031,0,-4.2446,-4.234,-4.2276,-4.2138,-4.2102,-4.2078,-4.1957,-4.1918,-4.1835,-4.1769,-4.1747,-4.1614,-4.153,-4.1414,-4.1294,-4.1236,-4.1183,-4.1149,-4.1219,-4.1205,-4.1217,-4.1216,-4.1281,-4.1281,-4.1171,-4.1173,-4.1174,0,-4.2495,-4.2468,-4.2327,-4.2286,-4.2225,-4.216,-4.2107,-4.1989,-4.1937,-4.1815,-4.179,-4.1699,-4.1619,-4.149,-4.1379,-4.1285,-4.1245,-4.1274,-4.123,-4.1261,-4.124,-4.1243,-4.1237,-4.1285,-4.1286,-4.1288,-4.1289,0,-4.2593,-4.2541,-4.2471,-4.2381,-4.2321,-4.2243,-4.2161,-4.2132,-4.1995,-4.1941,-4.1855,-4.1794,-4.1671,-4.1579,-4.147,-4.1397,-4.1318,-4.1304,-4.13,-4.133,-4.137,-4.1344,-4.1245,-4.1303,-4.1301,-4.13,-4.13,-4.1299,-4.2679,-4.2648,-4.2543,-4.2466,-4.2392,-4.2316,-4.2273,-4.2183,-4.2111,-4.2004,-4.1937,-4.1854,-4.1744,-4.159,-4.1521,-4.1449,-4.1418,-4.1413,-4.1411,-4.1411,-4.142,-4.1384,-4.1429,-4.1429,-4.1428,-4.1428,-4.1427,0,-4.2767,-4.2694,-4.2625,-4.2513,-4.2451,-4.2386,-4.229,-4.2241,-4.217,-4.2077,-4.2001,-4.1899,-4.1809,-4.1691,-4.1591,-4.1556,-4.1517,-4.1533,-4.1533,-4.1516,-4.1456,-4.1468,-4.1566,-4.1566,-4.1566,-4.1566,-4.1566,-4.1566,-4.2806,-4.2749,-4.2685,-4.2587,-4.2512,-4.2432,-4.2382,-4.2309,-4.2233,-4.2126,-4.2052,-4.1976,-4.187,-4.1761,-4.1673,-4.164,-4.1606,-4.1634,-4.1589,-4.1534,-4.1521,-4.151,-4.152,-4.1628,-4.1628,-4.1655,-4.1655,-4.1656]}]]